Regional Weather Roundup
Issued by NWS

Home | Current Version | Previous Version | Text Only | Print | Product List | Glossary Off
Versions: 1 2 3 4 5 6 7 8 9 10 11 12 13 14 15 16 17 18 19 20 21 22 23 24 25 26 27 28 29 30 31 32 33 34 35 36 37 38 39 40 41 42 43 44 45 46 47 48 49 50

000
ASUS45 KSLC 310010
RWRUT

UTAH REGIONAL WEATHER ROUNDUP
NATIONAL WEATHER SERVICE SALT LAKE CITY UT
500 PM MST FRI JAN 30 2015

UTZ001>011-023>025-310100-

NORTHERN UTAH

CITY           SKY/WX    TMP DP  RH WIND       PRES   REMARKS
BRIGHAM CITY   CLOUDY    47  33  59 W5        30.01S
HILL AFB       CLOUDY    44  28  54 E18G26    29.99F
LOGAN          CLOUDY    40  35  83 SW3       30.05S
OGDEN          CLOUDY    46  34  62 W8        29.99F
PROVO AIRPORT  CLOUDY    41  36  81 NW14      29.97F
SALT LAKE CITY CLOUDY    42  36  79 W5        29.99F
VERNAL         LGT RAIN  39  38  96 E5        30.03F FOG
WENDOVER       CLOUDY    45  34  65 N3        30.02S
HEBER CITY     CLOUDY    36  32  87 CALM      30.00F
WEST JORDAN    CLOUDY    41  37  87 NW7       30.00F

$$

UTZ012>022-026-027-310100-

SOUTHERN/CENTRAL UTAH

CITY           SKY/WX    TMP DP  RH WIND       PRES   REMARKS
BLANDING       CLOUDY    34  34 100 SE8       30.07F WCI  27
BRYCE CANYON   LGT SNOW  31  29  92 S9        29.94R FOG     WCI  23
CEDAR CITY     LGT RAIN  40  38  93 VRB6      29.87R
DELTA          CLOUDY    41  40  96 N12       29.94F
HANKSVILLE     CLOUDY    43  37  81 CALM      30.00F
MILFORD        CLOUDY    41  38  89 N15       29.90S
MOAB/CYNLANDS  CLOUDY    43  41  93 CALM      29.97F
PRICE          CLOUDY    39  36  89 CALM      29.99F
ST GEORGE      CLOUDY    48  45  87 CALM      29.90R
KANAB          CLOUDY    37  34  87 N9        29.96R WCI  31

$$

REGIONAL REPORTS     COLORADO/ARIZONA

CITY           SKY/WX    TMP DP  RH WIND       PRES   REMARKS
CRAIG, CO      CLOUDY    36  32  85 S5        30.04S WCI  32
GRAND JUNCTION CLOUDY    43  38  82 S3        29.99F
RIFLE          LGT RAIN  41  34  76 CALM      30.00F
MONTROSE       CLOUDY    41  36  82 NW6       30.01F
CORTEZ         CLOUDY    38  35  89 CALM      30.00F
PAGE, AZ       NOT AVBL
GRAND CANYON   CLOUDY    38  36  92 E7        29.90S WCI  33
KINGMAN        CLOUDY    48  46  93 NE6       29.84S
FLAGSTAFF      LGT RAIN  40  37  89 S7        29.90F FOG

$$

REGIONAL REPORTS    NEVADA/IDAHO/WYOMING

CITY           SKY/WX    TMP DP  RH WIND       PRES   REMARKS
LAS VEGAS, NV  CLOUDY    54  41  61 NW12      29.82F
ELY            CLOUDY    38  34  85 N22G29    29.95S WCI  27
ELKO           MOCLDY    46  32  58 NE15      30.01S
POCATELLO, ID  PTCLDY    39  31  72 W6        30.11F WCI  35
BURLEY         CLOUDY    36  31  82 W9        30.12S WCI  29
EVANSTON, WY   CLOUDY    34  25  69 NE10      30.05F WCI  26
ROCK SPRINGS   CLOUDY    34  30  85 NE8       30.08S WCI  27
KEMMERER       CLOUDY    34  27  75 NE6       30.08S WCI  29

$$



USA.gov is the U.S. government's official web portal to all federal, state and local government web resources and services.